Regional Weather Roundup
Issued by NWS Charleston, SC

Current Version | Previous Version | Graphics & Text | Print | Product List | Glossary On
Versions: 1 2 3 4 5 6 7 8 9 10 11 12 13 14 15 16 17 18 19 20 21 22 23 24 25 26 27 28 29 30 31 32 33 34 35 36 37 38 39 40 41 42 43 44 45 46 47 48 49 50
000
ASUS42 KCHS 231525
RWRCHS

REGIONAL WEATHER ROUNDUP
NATIONAL WEATHER SERVICE CHARLESTON SC
1100 AM EDT SAT AUG 23 2014

NOTE: "FAIR" INDICATES FEW OR NO CLOUDS BELOW 12,000 FEET WITH NO
SIGNIFICANT WEATHER AND/OR OBSTRUCTIONS TO VISIBILITY.

NOT ALL STATIONS ARE QUALITY CONTROLLED BY THE NATIONAL
WEATHER SERVICE. USE DATA WITH CAUTION...ESPECIALLY
DEWPOINT OBSERVATIONS.

SCZ027-030-031-034>040-042>050-231600-
...SOUTH CAROLINA...

CITY           SKY/WX    TMP DP  RH WIND       PRES   REMARKS
N CHARLESTON   MOSUNNY   94  74  52 W3        29.92F HX 104
WATERFRONT PRK   N/A     90 N/A N/A W3          N/A
FORT JOHNSON   NOT AVBL
MOUNT PLEASANT FAIR      93  75  55 W6        29.92S HX 104
JOHNS ISLAND   SUNNY     93  75  55 CALM      29.93S HX 104
PINOPOLIS        N/A     88  75  66 W2        29.86R HX  97
MONCKS CORNER    N/A     93  79  62 CALM      29.92F HX 110
SUMMERVILLE    FAIR      90  75  62 CALM      29.93F HX 100
BEAUFORT MCAS  SUNNY     91  72  53 NW7       29.94F HX  98
BEAUFORT ARPT  FAIR      91  73  55 W7        29.93F HX 100
HILTON HEAD IS SUNNY     91  70  49 W7        29.95F HX  97
GEORGETOWN     NOT AVBL
WALTERBORO     SUNNY     91  68  46 NW6       29.94S HX  95
ORANGEBURG     SUNNY     90  72  55 NW5       29.94S HX  97
BARNWELL       FAIR      91  73  55 NW7       29.95F HX 100
AIKEN          FAIR      90  73  58 N7        30.00S HX  98
MANNING        FAIR      90  77  66 NW3       29.93F HX 102
KINGSTREE      NOT AVBL
COLUMBIA       MOSUNNY   90  71  53 N5        29.95S HX  96
SUMTER         PTSUNNY   85  76  74 N3        29.94S HX  94
FLORENCE       MOSUNNY   90  74  59 N6        29.94S HX  99
MYRTLE BEACH   MOSUNNY   90  75  62 W5        29.93R HX 100
N MYRTLE BEACH SUNNY     86  78  77 VRB3      29.92S HX  98

$$

GAZ063-065-086>088-099>101-113>116-118-119-134-136>141-150-231600-
...GEORGIA...

CITY           SKY/WX    TMP DP  RH WIND       PRES   REMARKS
SAVANNAH ARPT  MOSUNNY   92  72  51 NW8       29.96S HX  99
HUNTER AAF     SUNNY     92  74  55 N5        29.94S HX 102
FORT STEWART   SUNNY     94  71  47 NW7       29.95S HX 101
STATESBORO     NOT AVBL
SYLVANIA       SUNNY     92  74  54 NW8       29.96F HX 102
CLAXTON        FAIR      93  77  59 NW6       29.96F HX 107
THOMSON        SUNNY     91  78  65 CALM      30.02F HX 105
AUGUSTA-BUSH   SUNNY     91  71  51 N7        29.96S HX  97
AUGUSTA-DANIEL SUNNY     91  71  51 NW9       29.98S HX  97
SWAINSBORO     FAIR      95  75  52 N9        29.98F HX 107
VIDALIA          N/A     93  73  52 NW9       29.98F HX 102
ALMA           SUNNY     92  72  51 N5        29.98S HX  99
WAYCROSS       SUNNY     95  78  56 N7        29.98S HX 111
JESUP            N/A     95  73  49 N8        29.97S HX 105
BRUNSWICK      SUNNY     93  72  49 NW3       29.97S HX 100
SAINT SIMONS   SUNNY     93  72  50 NW6       29.96S HX 101

$$

SCZ027-028-034-036>038-045-046-048>050-GAZ119-141-231600-
...LAKE AND SUPPLEMENTAL COASTAL OBSERVATIONS...

STATION/POSITION TIME  TEMP    WIND        PRES    WAVE   SWELL
                       AIR SEA DIR/SP/G            HT/PER HT/PER/DIR
                 (UTC) (F)     (DEG/KT/KT) (MB)    (FT/S) (FT/S/D)
UPR LAKE MARION  NOT AVBL
WINYAH BAY       1500   90     350/  2     1013.0S
LAKE MURRAY      1500   88      20/  1/  3 1013.5F
ACE BASIN NERRS  1500   91     320/  2     1014.0S
FORT PULASKI     1500   88     280/  9/ 11 1014.3F
SAPELO ISLAND    1500   93     350/  5     1015.0S

$$

ANZ835-935-AMZ111-154-330-350-352-354-374-450-454-472-231600-
...C-MAN AND BUOY OBSERVATIONS...

STATION/POSITION TIME  TEMP    WIND        PRES    WAVE   SWELL
                       AIR SEA DIR/SP/G            HT/PER HT/PER/DIR
                 (UTC) (F)     (DEG/KT/KT) (MB)    (FT/S) (FT/S/D)
FOLLY BEACH CMAN 1500   91     300/  4/  5 1013.6F
BUOY 41004       1500   85 85  270/  8/ 10 1012.7R   2/ 4   2/ 4
BUOY 41008       1500   86 85  310/  8/ 10 1014.4R   1/ 3
5E ST. MARYS GA  1500      83                N/A     1/ 9
FRYING PAN BUOY  NOT AVBL
BUOY 41025       1500   78     350/  8/ 10 1014.2R   2/ 8   2/ 30/ 8
CAPE LOOKOUT NC  1500   79      40/  4/  5 1014.5R
BUOY 41002       1443   82 82  270/ 10/ 12 1014.9R   2/ 5   2/ 80/ 7
BUOY 41010       1500   84 86  230/  4/  6 1015.5R   2/ 7   2/130/ 7
BUOY 41012       NOT AVBL
ST AUGUSTINE FL  1500   89     280/  5/  7 1015.7S
CAPERS NEARSHORE 1400   89     310/  4/  6   N/A
FRIPP NEARSHORE  NOT AVBL


$$


USA.gov is the U.S. government's official web portal to all federal, state and local government web resources and services.